PulseSat

PulseSat

INTELSAT 902 (IS-902)

Last updated on April 22, 2019, 2:58 a.m. UTC

1 26900U 01039A   19111.17654875  .00000015  00000-0  00000+0 0  9991
2 26900   0.0337 112.2860 0002849 274.8069 307.4222  1.00271797 64555
UTC
Height (km)
Latitude
Longitude
Inclination
Orbital Period

Next 30 passes for location: Hong Kong

Rise time Rise Azimuth (degrees) Set time Set Azimuth (degrees) Duration Max altitude (degrees)

No matching passes for this satellites

PulseSat

PulseSat is the new satellites software and hardware trackering solution by Pulsely.
Satellite Two Line Element Set source: US Air Force Space Command

Download PulseSat for iOS
© 2017 Pulsely Limited